OBJECT B

Satellite information

Favourite Embed

Satellite Type and Status

UNKNOWNIN ORBIT

Key statistics

Satellite OBJECT B at a glance.

Uptime

933

Days in orbit

Revolutions

≈ 15.3

Per day

Orbit

SSO

Sun Synchronous Orbit

Inclination

97.5

Latest

Satellite identification and parameters

Extended collection of information and parameters for OBJECT B.

Object identification

Identified? True

Debris? False

Object name: OBJECT B

International designator: 2023-072B

Object number (NORAD): 56744

Object ID (CCSDS): 56744

Country: SOUTH KOREA (SKOR)

Current information (Y/N): Y

RCS size: MEDIUM

Orbital parameters

Period: 93.867 minutes

Inclination: 97.5378 deg

SMA: 6841.781 km

Apoapsis: 467.153 km

Periapsis: 460.139 km

RAAN: 182.3365 deg

Eccentricy: 0.00051257

Argument of periapsis: 282.6464 deg

Mean anomaly: 77.4205 deg

Mean motion: 15.34083633 rev/day

Mean motion (dot): 0.00025672 rev/day2

B* drag term: 0.00077883566 1/REarth

Two-line elements (TLE)

Creation date: Dec. 12, 2025, 10:14 a.m.

Reference frame: TEME

Reference center: EARTH

Epoch: Dec. 12, 2025, 8:04 a.m. UTC

TLE line 0: 0 OBJECT B

TLE line 1: 1 56744U 23072B 25346.33617773 .00025672 00000-0 77884-3 0 9996

TLE line 2: 2 56744 97.5378 182.3365 0005126 282.6464 77.4205 15.34083633141389

Live tracking on map

Real-time ground track for satellite OBJECT B.

In-orbit conjunctions

There are no conjunctions computed for OBJECT B, at the moment. Check back to stay up to date, as we update our databases every day.

Go to all conjunctions

Associated space launch

Third flight of the KSLV-II "Nuri" launch vehicle, carrying NEXTSat-2 as well as SNIPE A through D.

OBJECT B was lifted into orbit during the mission ‘Nuri | NEXTSat-2 & SNIPE’, on board a Nuri space rocket.

The launch took place on May 25, 2023, 9:24 a.m. from LC-2.

For more information about the launch, click the button.

Launch to space Nuri | NEXTSat-2 & SNIPE
Nuri | NEXTSat-2 & SNIPE

Agency: N/A

Status: Launch Successful

Launch date: May 25, 2023, 9:24 a.m. UTC

Rocket: Nuri

Launch pad: LC-2

Location: Naro Space Center, South Korea

...

Latest news about this satellite

News about space launch
South Korea’s KSLV-2 rocket launches seven satellites, one unaccounted for

South Korea’s KSLV-2 rocket put seven satellites, including one equipped with synthetic aperture radar, into sun-synchronous orbit May 25, although an eighth cubesat is believed to have not deployed properly.

News about space launch
South Korea’s KSLV-2 rocket set to launch May 24

South Korea’s homegrown KSLV-2 rocket is slated to launch May 24, carrying a 180-kilogram technology demonstration satellite and seven cubesats.


Newsletter sign-up

Weekly statistics, charts and insights to help you stay on top of the space industry.